カタログに戻る

COSMOS 1481 DEB

LostHEO
NORAD 48344·DEBRIS·🇷🇺 Russia

打ち上げ Jul 8, 1983 から Plesetsk Cosmodrome

Loading…

次のパス (今後24時間)

TLE

古いSource: Space-Track

元期: Jun 5, 2022, 08:18 UTC

1 48344U 83070L   22156.34627722 -.00000074  00000-0  00000+0 0  9991
2 48344  69.6699 309.7752 5794733 305.8339  13.0699  2.10391033 52874

AllMySatでCOSMOS 1481 DEBをリアルタイム追跡

Download on the App Store